Location: Grums
(59.3529°N, 13.1129°E)
Time: 00:08:41
(UTC+01:00)

SEEDS - Pass Details

Date: 04 December 2021
Orbit: 584 x 600 km, 97.6° (Epoch: 27 January)

Event Time Altitude Azimuth Distance (km) Brightness Sun altitude
Rises 03:39:31 0° 23° (NNE) 2,828 ? -36.4°
Reaches altitude 10° 03:42:13 10° 41° (NE) 1,921 ? -36.1°
Enters shadow 03:43:27 15° 56° (NE) 1,609 ? -35.9°
